GW5308 Weather Reports


time (UTC)temp
F
wind
direction
speed
knots
gust
knots
rain 1hr
in
rain 24hr
in
rain mn
in
humidity
%
barometer
mb
20260903033519 78 0 0.0 0.0 0.00 0.08 0.08 100 1014.4
20260903033039 78 0 0.0 0.0 0.00 0.08 0.08 100 1014.3
20260903032518 78 0 0.0 0.0 0.00 0.08 0.08 100 1014.3
20260903032018 78 0 0.0 0.0 0.00 0.08 0.08 100 1014.4
20260903031535 78 0 0.0 0.0 0.00 0.08 0.08 100 1014.4
20260903031020 78 0 0.0 0.0 0.00 0.08 0.08 100 1014.5
20260903030520 78 0 0.0 0.0 0.00 0.08 0.08 100 1014.6
20260903030037 78 0 0.0 0.0 0.00 0.08 0.08 100 1014.6
20260903025526 78 0 0.0 0.0 0.00 0.08 0.08 100 1014.6
20260903025019 78 0 0.0 0.0 0.00 0.08 0.08 100 1014.6
20260903024543 78 0 0.0 0.0 0.00 0.08 0.08 100 1014.5
20260903024020 78 0 0.0 0.0 0.00 0.08 0.08 100 1014.5
20260903023519 78 0 0.0 0.0 0.00 0.08 0.08 100 1014.6
20260903023043 78 0 0.0 0.0 0.00 0.08 0.08 100 1014.6
20260903022519 78 0 0.0 0.0 0.00 0.08 0.08 100 1014.6
20260903022021 78 0 0.0 0.0 0.00 0.08 0.08 100 1014.6
20260903021539 78 0 0.0 0.0 0.00 0.08 0.08 99 1014.5
20260903021021 79 0 0.0 0.0 0.00 0.08 0.08 99 1014.5
20260903020522 79 0 0.0 0.0 0.00 0.08 0.08 99 1014.4
20260903020048 79 0 0.0 0.0 0.00 0.08 0.08 99 1014.5
20260903015520 79 0 0.0 1.7 0.00 0.08 0.08 99 1014.5
20260903015020 79 0 0.0 1.7 0.00 0.08 0.08 99 1014.4
20260903014554 79 0 0.0 1.7 0.00 0.08 0.08 98 1014.4
20260903014026 79 0 0.0 0.0 0.00 0.08 0.08 98 1014.3
20260903013519 79 0 0.0 0.0 0.00 0.08 0.08 98 1014.2
20260903013051 79 0 0.0 0.0 0.00 0.08 0.08 98 1014.3
20260903012522 79 0 0.0 0.0 0.00 0.08 0.08 97 1014.4
20260903012020 79 0 0.0 0.0 0.00 0.08 0.08 97 1014.3
20260903011602 79 0 0.0 0.0 0.00 0.08 0.08 96 1014.4
20260903011026 79 0 0.0 0.0 0.00 0.08 0.08 96 1014.4
20260903010520 80 0 0.0 0.9 0.00 0.08 0.08 96 1014.5
20260903010058 80 0 0.0 0.9 0.00 0.08 0.08 96 1014.4
20260903005521 80 299 0.0 1.7 0.00 0.08 0.08 96 1014.5
20260903005020 80 0 0.0 1.7 0.00 0.08 0.08 95 1014.4
20260903004540 80 319 0.0 2.6 0.00 0.08 0.08 95 1014.5
20260903004020 80 0 0.0 2.6 0.00 0.08 0.08 96 1014.5
20260903003519 80 15 0.0 2.6 0.00 0.08 0.08 97 1014.4
20260903003040 80 0 0.0 0.0 0.00 0.08 0.08 97 1014.4
20260903002522 80 0 0.0 0.0 0.00 0.08 0.08 96 1014.4
20260903002023 80 0 0.0 0.0 0.00 0.08 0.08 96 1014.3
20260903001552 80 0 0.0 0.0 0.00 0.08 0.08 96 1014.3
20260903001021 80 0 0.0 0.0 0.00 0.08 0.08 96 1014.1
20260903000520 80 0 0.0 0.0 0.00 0.08 0.08 96 1014.2
20260903000046 81 0 0.0 0.0 0.00 0.08 0.08 95 1013.9
20260902235520 81 0 0.0 0.0 0.00 0.08 0.08 95 1014.0
20260902235019 81 0 0.0 0.0 0.00 0.08 0.08 95 1014.0
20260902234543 81 0 0.0 0.0 0.00 0.08 0.08 94 1014.0
20260902234020 81 0 0.0 1.7 0.00 0.08 0.08 94 1014.1
20260902233521 81 0 0.0 1.7 0.00 0.08 0.08 94 1014.2
20260902233040 81 0 0.0 2.6 0.00 0.08 0.08 94 1014.2
20260902232521 81 0 0.0 2.6 0.00 0.08 0.08 94 1014.0
20260902232021 81 0 0.0 1.7 0.00 0.08 0.08 94 1013.9
20260902231544 82 0 0.0 1.7 0.00 0.08 0.08 94 1013.8
20260902231024 82 0 0.0 1.7 0.00 0.08 0.08 94 1013.7
20260902230523 82 0 0.0 1.7 0.00 0.08 0.08 94 1013.7
20260902230051 82 0 0.0 1.7 0.00 0.08 0.08 94 1013.7
20260902225524 82 356 0.0 1.7 0.00 0.08 0.08 94 1013.5
20260902225020 82 1 0.0 1.7 0.00 0.08 0.08 94 1013.5
20260902224542 82 0 0.0 1.7 0.00 0.08 0.08 94 1013.4
20260902224021 82 0 0.0 2.6 0.00 0.08 0.08 94 1013.3
20260902223519 82 0 0.0 2.6 0.00 0.08 0.08 94 1013.1
20260902223042 82 170 0.0 0.9 0.00 0.08 0.08 93 1013.1
20260902222519 82 0 0.0 0.9 0.00 0.08 0.08 93 1013.2
20260902222024 82 0 0.0 1.7 0.00 0.08 0.08 92 1013.1
20260902221536 82 345 0.0 3.5 0.00 0.08 0.08 92 1013.1
20260902221022 82 0 0.0 3.5 0.00 0.08 0.08 91 1013.3
20260902220520 82 0 0.0 3.5 0.00 0.08 0.08 91 1013.2
20260902220042 83 1 0.0 3.5 0.00 0.08 0.08 91 1013.2
20260902215520 83 4 0.0 3.5 0.00 0.08 0.08 90 1013.4
20260902215022 84 0 0.0 5.2 0.00 0.08 0.08 90 1013.4
20260902214545 84 1 0.0 5.2 0.00 0.08 0.08 89 1013.3
20260902214018 84 328 0.9 5.2 0.00 0.08 0.08 89 1013.2
20260902213518 84 0 0.0 5.2 0.00 0.08 0.08 89 1013.2
20260902213039 84 296 0.9 4.3 0.00 0.08 0.08 88 1013.3
20260902212520 84 319 0.9 4.3 0.00 0.08 0.08 88 1013.3
20260902212020 84 18 0.9 4.3 0.00 0.08 0.08 88 1013.4
20260902211543 84 30 0.9 4.3 0.00 0.08 0.08 88 1013.6
20260902211020 85 357 0.9 4.3 0.00 0.08 0.08 87 1013.7
20260902210521 85 12 1.7 4.3 0.00 0.08 0.08 86 1013.6
20260902210040 85 8 1.7 4.3 0.00 0.08 0.08 86 1013.5
20260902205520 86 358 0.0 2.6 0.00 0.08 0.08 87 1013.4
20260902205019 86 333 0.0 4.3 0.00 0.08 0.08 86 1013.3
20260902204542 86 0 0.9 4.3 0.00 0.08 0.08 86 1013.3
20260902204018 86 353 1.7 3.5 0.00 0.08 0.08 85 1013.3
20260902203521 86 4 0.9 5.2 0.00 0.08 0.08 85 1013.5
20260902203041 86 296 0.9 5.2 0.00 0.08 0.08 86 1013.5
20260902202519 86 0 0.0 1.7 0.00 0.08 0.08 89 1013.5
20260902202019 86 317 0.0 1.7 0.00 0.08 0.08 88 1013.6
20260902201550 86 0 0.0 1.7 0.00 0.08 0.08 88 1013.4
20260902201020 86 0 0.0 1.7 0.00 0.08 0.08 88 1013.6
20260902200520 86 0 0.0 2.6 0.00 0.08 0.08 87 1013.5
20260902200044 86 0 0.0 2.6 0.00 0.08 0.08 87 1013.6
20260902195521 86 0 0.0 2.6 0.00 0.08 0.08 85 1013.6
20260902195020 86 0 0.0 2.6 0.00 0.08 0.08 86 1013.7
20260902194550 86 0 0.0 1.7 0.00 0.08 0.08 87 1013.7
20260902194024 86 0 0.0 1.7 0.00 0.08 0.08 87 1013.9
20260902193521 86 0 0.0 1.7 0.00 0.08 0.08 86 1013.8
20260902193044 86 0 0.0 2.6 0.00 0.08 0.08 88 1013.8
20260902192520 86 0 0.0 3.5 0.00 0.08 0.08 85 1013.8
20260902192021 86 0 0.9 3.5 0.01 0.08 0.08 84 1013.8
20260902191542 87 8 0.0 1.7 0.01 0.08 0.08 85 1013.9
20260902191020 87 0 0.0 2.6 0.01 0.08 0.08 85 1013.7
20260902190520 88 295 0.0 6.1 0.01 0.08 0.08 83 1013.7
20260902190043 88 65 0.9 6.1 0.01 0.08 0.08 82 1013.8
20260902185520 88 171 0.9 6.1 0.01 0.08 0.08 83 1013.8
20260902185022 87 274 0.9 3.5 0.01 0.08 0.08 85 1013.8
20260902184542 86 0 0.0 1.7 0.01 0.08 0.08 90 1013.8
20260902184023 86 0 0.0 1.7 0.01 0.08 0.08 91 1013.9
20260902183523 86 0 0.0 0.9 0.01 0.08 0.08 92 1014.1
20260902183041 85 0 0.0 7.0 0.01 0.08 0.08 90 1014.2
20260902182524 86 0 1.7 7.0 0.01 0.08 0.08 88 1014.4
20260902182024 88 20 0.9 7.8 0.00 0.07 0.07 84 1014.4
20260902181542 89 14 3.5 7.8 0.00 0.07 0.07 81 1014.3
20260902181021 89 352 1.7 4.3 0.00 0.07 0.07 80 1014.3
20260902180518 89 319 0.0 2.6 0.00 0.07 0.07 80 1014.3
20260902180042 89 1 0.9 2.6 0.00 0.07 0.07 79 1014.4
20260902175521 90 35 0.9 5.2 0.00 0.07 0.07 79 1014.4
20260902175025 90 39 0.0 5.2 0.00 0.07 0.07 80 1014.3
20260902174541 90 29 0.9 5.2 0.00 0.07 0.07 79 1014.4
20260902174020 90 102 0.0 5.2 0.00 0.07 0.07 78 1014.4
20260902173521 90 296 0.9 4.3 0.00 0.07 0.07 78 1014.4
20260902173046 90 83 1.7 5.2 0.00 0.07 0.07 80 1014.6
20260902172526 89 311 0.0 6.1 0.00 0.07 0.07 82 1014.6
20260902172021 89 25 1.7 6.1 0.00 0.07 0.07 80 1014.7
20260902171540 89 12 0.0 2.6 0.00 0.07 0.07 83 1014.7
20260902171023 89 0 0.0 3.5 0.00 0.07 0.07 84 1014.8
20260902170522 89 29 0.9 3.5 0.00 0.07 0.07 81 1015.0
20260902170041 89 0 0.0 2.6 0.00 0.07 0.07 82 1014.9
20260902165520 89 14 0.0 2.6 0.00 0.26 0.07 81 1014.9
20260902165021 89 0 0.0 2.6 0.00 0.26 0.07 84 1014.9
20260902164541 89 80 0.0 3.5 0.00 0.26 0.07 82 1014.9
20260902164019 88 0 0.0 3.5 0.00 0.26 0.07 83 1014.9
20260902163523 87 292 0.9 3.5 0.00 0.26 0.07 84 1015.1
20260902163044 87 4 0.0 3.5 0.00 0.26 0.07 88 1015.1
20260902162521 87 25 0.9 3.5 0.00 0.26 0.07 86 1015.1
20260902162022 86 78 0.0 2.6 0.01 0.26 0.07 89 1015.1
20260902161543 86 0 0.0 2.6 0.01 0.26 0.07 92 1015.2
20260902161020 85 0 0.0 1.7 0.01 0.26 0.07 95 1015.3
20260902160525 84 0 0.0 1.7 0.01 0.26 0.07 94 1015.5
20260902160038 83 352 0.0 2.6 0.01 0.26 0.07 95 1015.6
20260902155519 83 0 0.0 2.6 0.01 0.28 0.07 95 1015.7
20260902155020 83 349 0.0 2.6 0.01 0.28 0.07 95 1015.7
20260902154539 83 0 0.0 2.6 0.01 0.28 0.07 95 1015.8
20260902154019 83 109 0.0 2.6 0.01 0.28 0.07 97 1015.7
20260902153526 82 0 0.0 1.7 0.01 0.28 0.07 99 1015.7
20260902153044 81 0 0.0 2.6 0.01 0.28 0.07 97 1015.8
20260902152520 82 58 0.0 7.0 0.01 0.28 0.07 96 1015.9
20260902152021 83 0 0.9 7.8 0.00 0.27 0.06 94 1016.0
20260902151547 84 0 1.7 7.8 0.02 0.27 0.06 94 1015.7
20260902151020 84 0 0.0 4.3 0.05 0.27 0.06 94 1015.6
20260902150521 84 97 0.9 4.3 0.05 0.27 0.06 92 1015.6
20260902150040 84 0 0.0 4.3 0.06 0.27 0.06 96 1015.7
20260902145519 83 23 0.0 2.6 0.06 0.27 0.06 95 1015.7
20260902145021 83 0 0.0 1.7 0.06 0.27 0.06 96 1015.7
20260902144538 83 270 0.0 2.6 0.06 0.27 0.06 97 1015.8
20260902144019 83 28 0.0 2.6 0.06 0.27 0.06 97 1015.7
20260902143524 82 0 0.0 2.6 0.06 0.27 0.06 98 1015.8
20260902143041 81 0 0.0 1.7 0.06 0.27 0.06 99 1015.9
20260902142523 81 0 0.0 0.9 0.06 0.27 0.06 100 1015.8
20260902142020 80 0 0.0 2.6 0.06 0.27 0.06 100 1015.9
20260902141544 80 349 0.0 3.5 0.03 0.24 0.03 99 1016.0
20260902141020 80 0 0.0 5.2 0.01 0.22 0.01 97 1016.0
20260902140520 81 317 0.0 6.1 0.01 0.22 0.01 95 1015.9
20260902140037 82 319 0.9 6.1 0.00 0.21 0.00 94 1015.9
20260902135521 83 17 0.0 3.5 0.00 0.21 0.00 94 1015.7
20260902135019 84 13 0.0 4.3 0.00 0.21 0.00 93 1015.5
20260902134543 84 106 0.9 4.3 0.00 0.21 0.00 93 1015.4
20260902134022 84 0 0.0 2.6 0.00 0.21 0.00 93 1015.4
20260902133521 84 63 0.9 2.6 0.00 0.21 0.00 92 1015.6
20260902133039 84 0 0.0 3.5 0.00 0.21 0.00 93 1015.6
20260902132524 84 357 0.9 3.5 0.00 0.21 0.00 93 1015.7
20260902132020 83 0 0.0 2.6 0.00 0.21 0.00 95 1015.8
20260902131543 82 0 0.0 1.7 0.00 0.21 0.00 96 1015.8
20260902131020 81 317 0.0 2.6 0.00 0.21 0.00 97 1015.8
20260902130525 80 335 0.0 3.5 0.00 0.21 0.00 99 1015.8
20260902130041 80 328 0.9 3.5 0.00 0.21 0.00 100 1015.8
20260902125520 79 280 0.9 4.3 0.00 0.21 0.00 100 1015.7
20260902125022 79 342 0.9 4.3 0.00 0.21 0.00 100 1015.7
20260902124540 79 0 0.0 0.0 0.00 0.21 0.00 100 1015.7
20260902124024 78 0 0.0 0.0 0.00 0.21 0.00 100 1015.6
20260902123521 78 0 0.0 0.0 0.00 0.21 0.00 100 1015.5
20260902123041 78 0 0.0 0.0 0.00 0.21 0.00 100 1015.5
20260902122524 78 0 0.0 0.0 0.00 0.21 0.00 100 1015.5
20260902122019 77 0 0.0 0.0 0.00 0.21 0.00 100 1015.5
20260902121547 77 0 0.0 0.0 0.00 0.21 0.00 100 1015.5
20260902121020 77 0 0.0 0.0 0.00 0.21 0.00 100 1015.5
20260902120519 77 0 0.0 0.0 0.00 0.21 0.00 100 1015.5
20260902120043 77 0 0.0 0.9 0.00 0.21 0.00 100 1015.5
20260902115550 76 0 0.0 0.9 0.00 0.21 0.00 100 1015.4
20260902115018 76 0 0.0 0.0 0.00 0.21 0.00 100 1015.3
20260902114542 76 0 0.0 0.0 0.00 0.21 0.00 100 1015.4
20260902114017 76 0 0.0 0.0 0.00 0.21 0.00 100 1015.2
20260902113520 76 0 0.0 0.0 0.00 0.21 0.00 100 1015.2
20260902113036 75 0 0.0 0.0 0.00 0.21 0.00 100 1015.2
20260902112521 75 0 0.0 0.0 0.00 0.21 0.00 100 1015.2
20260902112021 75 0 0.0 0.0 0.00 0.21 0.00 100 1015.1
20260902111537 75 0 0.0 0.0 0.00 0.21 0.00 100 1015.1
20260902111019 75 0 0.0 0.0 0.00 0.21 0.00 100 1015.2
20260902110520 75 0 0.0 0.0 0.00 0.21 0.00 100 1015.1
20260902110041 75 0 0.0 0.0 0.00 0.21 0.00 100 1015.1
20260902105519 75 0 0.0 0.0 0.00 0.21 0.00 100 1015.2
20260902105019 75 0 0.0 0.0 0.00 0.21 0.00 100 1015.0
20260902104600 74 0 0.0 0.0 0.00 0.21 0.00 100 1015.0
20260902104019 75 0 0.0 0.0 0.00 0.21 0.00 100 1014.9
20260902103523 75 0 0.0 0.0 0.00 0.21 0.00 100 1014.9
20260902103038 75 0 0.0 0.0 0.00 0.21 0.00 100 1014.8
20260902102521 75 0 0.0 0.0 0.00 0.21 0.00 100 1014.8
20260902102020 75 0 0.0 0.0 0.00 0.21 0.00 100 1014.8
20260902101534 75 0 0.0 0.0 0.00 0.21 0.00 100 1014.8
20260902101019 75 0 0.0 0.0 0.00 0.21 0.00 100 1014.8
20260902100520 75 0 0.0 0.0 0.00 0.21 0.00 100 1014.7
20260902100047 75 0 0.0 0.0 0.00 0.21 0.00 100 1014.6
20260902095520 75 0 0.0 0.0 0.00 0.21 0.00 100 1014.5
20260902095019 75 0 0.0 0.0 0.00 0.21 0.00 100 1014.5
20260902094535 75 0 0.0 0.0 0.00 0.21 0.00 100 1014.4
20260902094021 75 0 0.0 0.0 0.00 0.21 0.00 100 1014.4
20260902093523 75 0 0.0 0.0 0.00 0.21 0.00 100 1014.3
20260902093037 75 0 0.0 0.0 0.00 0.21 0.00 100 1014.3
20260902092519 75 0 0.0 0.0 0.00 0.21 0.00 100 1014.3
20260902092026 75 0 0.0 0.0 0.00 0.21 0.00 100 1014.1
20260902091539 75 0 0.0 0.0 0.00 0.21 0.00 100 1014.1
20260902091019 75 0 0.0 0.0 0.00 0.21 0.00 100 1014.0
20260902090518 75 0 0.0 0.0 0.00 0.21 0.00 100 1014.0
20260902090036 76 0 0.0 0.0 0.00 0.21 0.00 100 1013.9
20260902085519 75 0 0.0 0.0 0.00 0.21 0.00 100 1013.9
20260902085021 75 0 0.0 0.9 0.00 0.21 0.00 100 1013.9
20260902084541 75 0 0.0 0.9 0.00 0.21 0.00 100 1014.0
20260902084022 75 0 0.0 0.9 0.00 0.21 0.00 100 1014.1
20260902083521 75 0 0.0 0.0 0.00 0.21 0.00 100 1014.1
20260902083036 75 0 0.0 0.0 0.00 0.21 0.00 100 1014.1
20260902082519 75 0 0.0 0.0 0.00 0.21 0.00 100 1014.1
20260902082023 75 0 0.0 0.0 0.00 0.21 0.00 100 1014.2
20260902081605 75 0 0.0 0.0 0.00 0.21 0.00 100 1014.1
20260902081023 75 0 0.0 0.0 0.00 0.21 0.00 100 1014.1
20260902080521 75 0 0.0 0.0 0.00 0.21 0.00 100 1014.3
20260902080053 75 0 0.0 0.0 0.00 0.21 0.00 100 1014.2
20260902075520 75 0 0.0 0.0 0.00 0.21 0.00 100 1014.3
20260902075019 74 0 0.0 0.0 0.00 0.21 0.00 100 1014.3
20260902074544 74 0 0.0 0.0 0.00 0.21 0.00 100 1014.3
20260902074021 74 0 0.0 0.0 0.00 0.21 0.00 100 1014.4
20260902073520 74 0 0.0 0.0 0.00 0.21 0.00 100 1014.4
20260902073039 74 0 0.0 0.0 0.00 0.21 0.00 100 1014.4
20260902072526 74 0 0.0 0.0 0.00 0.21 0.00 100 1014.3
20260902072023 74 0 0.0 0.0 0.00 0.21 0.00 100 1014.3
20260902071540 74 0 0.0 0.0 0.00 0.21 0.00 100 1014.2
20260902071021 74 0 0.0 0.0 0.00 0.21 0.00 100 1014.4
20260902070524 74 0 0.0 0.0 0.00 0.21 0.00 100 1014.5
20260902070043 74 0 0.0 0.0 0.00 0.21 0.00 100 1014.5
20260902065523 74 0 0.0 0.0 0.00 0.21 0.00 100 1014.5
20260902065021 74 0 0.0 0.0 0.00 0.21 0.00 100 1014.5
20260902064540 74 0 0.0 0.0 0.00 0.21 0.00 100 1014.5
20260902064023 75 0 0.0 0.0 0.00 0.21 0.00 100 1014.5
20260902063519 75 0 0.0 0.0 0.00 0.21 0.00 100 1014.6
20260902063056 75 0 0.0 0.0 0.00 0.21 0.00 100 1014.7
20260902062524 75 0 0.0 0.0 0.00 0.21 0.00 100 1014.7
20260902062021 75 0 0.0 0.0 0.00 0.21 0.00 100 1014.7
20260902061545 75 0 0.0 0.0 0.00 0.21 0.00 100 1014.7
20260902061035 75 0 0.0 0.0 0.00 0.21 0.00 100 1014.5
20260902060520 75 0 0.0 0.0 0.00 0.21 0.00 100 1014.6
20260902060054 75 0 0.0 0.0 0.00 0.21 0.00 100 1014.6
20260902055521 75 0 0.0 0.0 0.00 0.21 0.00 100 1014.6
20260902055020 75 0 0.0 0.0 0.00 0.21 0.00 100 1014.5
20260902054543 75 0 0.0 0.0 0.00 0.21 0.00 100 1014.6
20260902054020 75 0 0.0 0.0 0.00 0.21 0.00 100 1014.7
20260902053519 75 0 0.0 0.0 0.00 0.21 0.00 100 1014.6
20260902053042 75 0 0.0 0.0 0.00 0.21 0.00 100 1014.7
20260902052519 75 0 0.0 0.0 0.00 0.21 0.00 100 1014.7
20260902052018 75 0 0.0 0.0 0.00 0.21 0.00 100 1014.8
20260902051537 75 0 0.0 0.0 0.00 0.21 0.00 100 1014.7
20260902051020 75 0 0.0 0.0 0.00 0.21 0.00 100 1014.7
20260902050521 75 0 0.0 0.0 0.00 0.21 0.00 100 1014.7
20260902050036 75 0 0.0 0.0 0.00 0.21 0.00 100 1014.6
20260902045518 75 0 0.0 0.0 0.00 0.21 0.00 100 1014.7
20260902045019 75 0 0.0 0.0 0.00 0.21 0.00 100 1014.8
20260902044545 75 0 0.0 0.0 0.00 0.21 0.00 100 1014.8
20260902044022 75 0 0.0 0.0 0.00 0.21 0.00 100 1014.8
20260902043520 75 0 0.0 0.0 0.00 0.21 0.00 100 1014.9
20260902043041 75 0 0.0 0.0 0.00 0.21 0.00 100 1014.9
20260902042519 75 0 0.0 0.0 0.00 0.21 0.00 100 1014.9
20260902042017 75 0 0.0 0.0 0.00 0.21 0.00 100 1015.0
20260902041539 75 0 0.0 0.0 0.00 0.21 0.00 100 1015.0
20260902041020 75 0 0.0 0.0 0.00 0.21 0.00 100 1015.0
20260902040521 75 0 0.0 0.0 0.00 0.21 0.00 100 1015.1
20260902040037 75 0 0.0 0.0 0.00 0.21 0.00 100 1015.1
20260902035518 75 0 0.0 0.0 0.00 0.21 0.21 100 1015.2
20260902035019 75 0 0.0 0.0 0.00 0.21 0.21 100 1015.2
20260902034537 75 0 0.0 0.0 0.00 0.21 0.21 100 1015.2
20260902034019 75 0 0.0 0.0 0.00 0.21 0.21 100 1015.3